Menominee, MI

6:28 AM CDT on July 25, 2017 (GMT -0500)
Menominee-Marinette Twin County

Weather History for KMNM - February, 2014

Change the Weather History Date:

Thursday, February 27, 2014

  Actual Average Record
Temperature  
Mean Temperature -4 °F -  
Max Temperature 5 °F 36 °F 53 °F (1976)
Min Temperature -14 °F 17 °F -14 °F (2014)
Degree Days  
Heating Degree Days 70    
Moisture  
Dew Point -15 °F    
Average Humidity 52    
Maximum Humidity 100    
Minimum Humidity 33    
Precipitation  
Precipitation 0.00 in - - ()
Sea Level Pressure  
Sea Level Pressure 29.96 in    
Wind  
Wind Speed 10 mph (NNW)    
Max Wind Speed 17 mph    
Max Gust Speed 31 mph    
Visibility 9 miles    
Events      
Averages and records for this station are not official NWS values.
T = Trace of Precipitation, MM = Missing Value Source: NWS Daily Summary

Daily Weather History Graph

Daily Weather History Graph

Search for Another Location

Airport or City:

Trip Planner

Search our weather history database for the weather conditions in past years. The results will help you decide how hot, cold, wet, or windy it might be!

Date:

Astronomy

Feb. 27, 2014 Rise Set
Actual Time 6:31 AM CST 5:35 PM CST
Civil Twilight 6:02 AM CST 6:04 PM CST
Nautical Twilight 5:28 AM CST 6:38 PM CST
Astronomical Twilight 4:54 AM CST 7:13 PM CST
Moon 5:07 AM CST (2/27) 3:58 PM CST (2/27)
Length of Visible Light 12h 02m
Length of Day
11h 03m
Waning Crescent, 4% of the Moon is Illuminated
Feb 27
Waning Crescent
Mar 1
New
Mar 8
First Quarter
Mar 16
Full
Mar 23
Last Quarter

Hourly Weather History & Observations

Time (CST) Temp. Windchill Dew Point Humidity Pressure Visibility Wind Dir Wind Speed Gust Speed Precip Events Conditions
12:15 AM 5.0 °F -10.0 °F -0.4 °F 78% 29.54 in 6.0 mi North 10.4 mph - N/A   Mostly Cloudy
12:35 AM 5.0 °F -6.9 °F 1.4 °F 85% 29.56 in 1.8 mi North 6.9 mph - N/A   Overcast
12:55 AM 5.0 °F -11.6 °F 1.4 °F 85% 29.57 in 2.0 mi North 12.7 mph 19.6 mph N/A   Overcast
1:15 AM 3.2 °F -16.5 °F -0.4 °F 85% 29.60 in 0.5 mi North 17.3 mph 31.1 mph N/A   Overcast
1:35 AM 3.2 °F -15.3 °F -2.2 °F 78% 29.62 in 3.0 mi North 15.0 mph 21.9 mph N/A   Overcast
1:55 AM 3.2 °F -14.6 °F -11.2 °F 51% 29.64 in 6.0 mi North 13.8 mph 24.2 mph N/A   Mostly Cloudy
2:15 AM 1.4 °F -16.1 °F -11.2 °F 56% 29.65 in 8.0 mi North 12.7 mph 26.5 mph N/A   Partly Cloudy
2:35 AM 1.4 °F -16.1 °F -13.0 °F 51% 29.66 in 10.0 mi NNW 12.7 mph 19.6 mph N/A   Clear
2:55 AM 1.4 °F -16.9 °F -11.2 °F 56% 29.68 in 10.0 mi NNW 13.8 mph 21.9 mph N/A   Clear
3:15 AM 1.4 °F -18.2 °F -9.4 °F 61% 29.70 in 7.0 mi North 16.1 mph 21.9 mph N/A   Mostly Cloudy
3:35 AM 1.4 °F -17.6 °F -7.6 °F 66% 29.72 in 3.0 mi NNW 15.0 mph 24.2 mph N/A   Mostly Cloudy
3:55 AM -0.4 °F -20.5 °F -9.4 °F 66% 29.73 in 10.0 mi North 16.1 mph 23.0 mph N/A   Scattered Clouds
4:15 AM -0.4 °F -19.2 °F -14.8 °F 51% 29.75 in 9.0 mi North 13.8 mph 21.9 mph N/A   Clear
4:35 AM -0.4 °F -16.7 °F -16.6 °F 46% 29.76 in 10.0 mi NNW 10.4 mph 18.4 mph N/A   Clear
4:55 AM -0.4 °F -15.7 °F -16.6 °F 46% 29.78 in 10.0 mi NNW 9.2 mph 17.3 mph N/A   Clear
5:15 AM -0.4 °F -18.4 °F -14.8 °F 51% 29.80 in 10.0 mi NNW 12.7 mph 18.4 mph N/A   Clear
5:35 AM -0.4 °F -18.4 °F -16.6 °F 46% 29.81 in 10.0 mi NNW 12.7 mph 20.7 mph N/A   Clear
5:55 AM -2.2 °F -19.9 °F -14.8 °F 55% 29.83 in 10.0 mi NNW 11.5 mph 18.4 mph N/A   Clear
6:15 AM -2.2 °F -15.6 °F -16.6 °F 50% 29.85 in 10.0 mi NNW 6.9 mph - N/A   Clear
6:35 AM -2.2 °F -19.9 °F -16.6 °F 50% 29.86 in 10.0 mi NNW 11.5 mph 17.3 mph N/A   Clear
6:55 AM -2.2 °F -20.7 °F -14.8 °F 55% 29.88 in 10.0 mi NNW 12.7 mph 20.7 mph N/A   Clear
7:15 AM -2.2 °F -18.0 °F -14.8 °F 55% 29.90 in 10.0 mi NNW 9.2 mph 17.3 mph N/A   Clear
7:35 AM -2.2 °F -19.9 °F -13.0 °F 60% 29.91 in 10.0 mi NNW 11.5 mph 18.4 mph N/A   Clear
7:55 AM -2.2 °F -20.7 °F -14.8 °F 55% 29.93 in 10.0 mi NNW 12.7 mph 19.6 mph N/A   Clear
8:15 AM -2.2 °F -19.9 °F -14.8 °F 55% 29.94 in 10.0 mi NNW 11.5 mph 21.9 mph N/A   Clear
8:35 AM -0.4 °F -18.4 °F -14.8 °F 51% 29.95 in 6.0 mi NNW 12.7 mph 21.9 mph N/A   Clear
8:55 AM -0.4 °F -18.4 °F -14.8 °F 51% 29.96 in 10.0 mi NNW 12.7 mph 21.9 mph N/A   Clear
9:15 AM -0.4 °F -20.5 °F -14.8 °F 51% 29.97 in 10.0 mi North 16.1 mph 23.0 mph N/A   Clear
9:35 AM -0.4 °F -19.2 °F -14.8 °F 51% 29.98 in 10.0 mi NNW 13.8 mph 23.0 mph N/A   Clear
9:55 AM -0.4 °F -14.7 °F -16.6 °F 46% 29.99 in 10.0 mi NW 8.1 mph 20.7 mph N/A   Clear
10:15 AM 1.4 °F -16.1 °F -16.6 °F 43% 30.00 in 10.0 mi NNW 12.7 mph 21.9 mph N/A   Clear
10:35 AM 1.4 °F -15.3 °F -16.6 °F 43% 30.01 in 10.0 mi NNW 11.5 mph 17.3 mph N/A   Clear
10:55 AM 1.4 °F -18.2 °F -18.4 °F 39% 30.01 in 10.0 mi NNW 16.1 mph 21.9 mph N/A   Clear
11:15 AM 1.4 °F -16.1 °F -18.4 °F 39% 30.02 in 10.0 mi NNW 12.7 mph 16.1 mph N/A   Partly Cloudy
11:35 AM 1.4 °F -14.5 °F -16.6 °F 43% 30.03 in 10.0 mi NW 10.4 mph 20.7 mph N/A   Partly Cloudy
11:55 AM 1.4 °F -14.5 °F -18.4 °F 39% 30.03 in 10.0 mi NW 10.4 mph 17.3 mph N/A   Clear
12:15 PM 3.2 °F -11.3 °F -18.4 °F 36% 30.04 in 10.0 mi NW 9.2 mph 18.4 mph N/A   Clear
12:35 PM 3.2 °F -13.1 °F -18.4 °F 36% 30.04 in 10.0 mi NNW 11.5 mph 18.4 mph N/A   Clear
12:55 PM 3.2 °F -12.2 °F -18.4 °F 36% 30.04 in 10.0 mi NNW 10.4 mph 17.3 mph N/A   Clear
1:15 PM 3.2 °F -11.3 °F -18.4 °F 36% 30.03 in 10.0 mi NNW 9.2 mph - N/A   Clear
1:35 PM 3.2 °F -9.1 °F -18.4 °F 36% 30.04 in 10.0 mi WNW 6.9 mph 19.6 mph N/A   Clear
1:55 PM 3.2 °F -13.1 °F -16.6 °F 39% 30.05 in 10.0 mi NNW 11.5 mph 17.3 mph N/A   Clear
2:15 PM 5.0 °F -8.1 °F -16.6 °F 36% 30.05 in 10.0 mi WNW 8.1 mph - N/A   Clear
2:35 PM 5.0 °F -8.1 °F -18.4 °F 33% 30.06 in 10.0 mi WNW 8.1 mph 16.1 mph N/A   Clear
2:55 PM 5.0 °F -8.1 °F -18.4 °F 33% 30.06 in 10.0 mi NW 8.1 mph - N/A   Clear
3:15 PM 5.0 °F -10.0 °F -18.4 °F 33% 30.06 in 10.0 mi NW 10.4 mph - N/A   Clear
3:35 PM 5.0 °F -4.1 °F -18.4 °F 33% 30.06 in 10.0 mi WNW 4.6 mph - N/A   Clear
3:55 PM 5.0 °F -6.9 °F -18.4 °F 33% 30.07 in 10.0 mi NNW 6.9 mph - N/A   Clear
4:15 PM 5.0 °F -8.1 °F -18.4 °F 33% 30.07 in 10.0 mi North 8.1 mph - N/A   Clear
4:35 PM 5.0 °F -2.1 °F -18.4 °F 33% 30.07 in 10.0 mi North 3.5 mph - N/A   Clear
4:55 PM 5.0 °F -5.6 °F -18.4 °F 33% 30.08 in 10.0 mi NNW 5.8 mph - N/A   Clear
5:15 PM 5.0 °F - -18.4 °F 33% 30.09 in 10.0 mi Calm Calm - N/A   Clear
5:35 PM 3.2 °F - -18.4 °F 36% 30.09 in 10.0 mi Calm Calm - N/A   Clear
5:55 PM 3.2 °F - -18.4 °F 36% 30.10 in 10.0 mi Calm Calm - N/A   Clear
6:15 PM 1.4 °F - -20.2 °F 36% 30.10 in 10.0 mi Calm Calm - N/A   Clear
6:35 PM 1.4 °F - -18.4 °F 39% 30.11 in 10.0 mi Calm Calm - N/A   Clear
6:55 PM -4.0 °F - -20.2 °F 46% 30.11 in 10.0 mi Calm Calm - N/A   Clear
7:15 PM -4.0 °F - -16.6 °F 55% 30.11 in 10.0 mi Calm Calm - N/A   Clear
7:35 PM -2.2 °F - -14.8 °F 55% 30.12 in 10.0 mi Calm Calm - N/A   Clear
7:55 PM -5.8 °F -19.9 °F -16.6 °F 60% 30.12 in 10.0 mi ENE 6.9 mph - N/A   Clear
8:15 PM -5.8 °F -16.7 °F -18.4 °F 55% 30.12 in 10.0 mi East 4.6 mph - N/A   Clear
8:35 PM -5.8 °F - -16.6 °F 60% 30.13 in 10.0 mi Calm Calm - N/A   Clear
8:55 PM -5.8 °F - -16.6 °F 60% 30.13 in 10.0 mi Calm Calm - N/A   Clear
9:15 PM -5.8 °F -14.5 °F -14.8 °F 65% 30.13 in 10.0 mi NE 3.5 mph - N/A   Clear
9:35 PM -5.8 °F -14.5 °F -18.4 °F 55% 30.13 in 10.0 mi NE 3.5 mph - N/A   Clear
9:55 PM -7.6 °F - -16.6 °F 65% 30.14 in 10.0 mi Calm Calm - N/A   Clear
10:15 PM -9.4 °F - -20.2 °F 59% 30.14 in 10.0 mi Calm Calm - N/A   Clear
10:35 PM -11.2 °F - -18.4 °F 70% 30.15 in 10.0 mi Calm Calm - N/A   Clear
10:55 PM -11.2 °F - -18.4 °F 70% 30.15 in 10.0 mi Calm Calm - N/A   Clear
11:15 PM -14.8 °F - -18.4 °F 84% 30.15 in 10.0 mi Calm Calm - N/A   Clear
11:35 PM -14.8 °F - -14.8 °F 100% 30.15 in 10.0 mi Calm Calm - N/A   Clear
11:55 PM -14.8 °F - -20.2 °F 77% 30.16 in 10.0 mi Calm Calm - N/A   Clear